Riverside, CA

10:15 PM PDT on September 24, 2016 (GMT -0700)
Riverside Municipal

Weather History for KRAL - September, 2012

Change the Weather History Date:

Tuesday, September 4, 2012

  Actual Average Record
Temperature  
Mean Temperature 84 °F 78 °F  
Max Temperature 99 °F 93 °F 111 °F (2007)
Min Temperature 68 °F 64 °F 42 °F (1912)
Degree Days  
Heating Degree Days 0 0  
Month to date heating degree days 0 0  
Since 1 July heating degree days 0 0  
Cooling Degree Days 19 13  
Month to date cooling degree days 66 54  
Year to date cooling degree days 1558 1312  
Growing Degree Days 34 (Base 50)    
Moisture  
Dew Point 44 °F    
Average Humidity 33    
Maximum Humidity 55    
Minimum Humidity 10    
Precipitation  
Precipitation 0.00 in 0.00 in 0.61 in (1963)
Month to date precipitation 0.00 0.00  
Year to date precipitation 2.86 9.34  
Since 1 July precipitation 0.01  
Snow  
Snow 0.00 in - - ()
Month to date snowfall 0.0  
Year to date snowfall 0.0  
Snow Depth 0.00 in    
Sea Level Pressure  
Sea Level Pressure 29.91 in    
Wind  
Wind Speed 4 mph (West)    
Max Wind Speed 15 mph    
Max Gust Speed 23 mph    
Visibility 10 miles    
Events      
T = Trace of Precipitation, MM = Missing Value Source: NWS Daily Summary

Daily Weather History Graph

Daily Weather History Graph

Search for Another Location

Airport or City:

Trip Planner

Search our weather history database for the weather conditions in past years. The results will help you decide how hot, cold, wet, or windy it might be!

Date:

Astronomy

Sep. 04, 2012 Rise Set
Actual Time 6:25 AM PDT 7:10 PM PDT
Civil Twilight 6:00 AM PDT 7:36 PM PDT
Nautical Twilight 5:30 AM PDT 8:05 PM PDT
Astronomical Twilight 4:59 AM PDT 8:36 PM PDT
Moon 9:22 PM PDT (9/4) 10:22 AM PDT (9/4)
Length of Visible Light 13h 35m
Length of Day
12h 44m
Waning Gibbous, 83% of the Moon is Illuminated
Sep 4
Waning Gibbous
Sep 8
Last Quarter
Sep 15
New
Sep 22
First Quarter
Sep 29
Full

Hourly Weather History & Observations

Time (PDT) Temp. Dew Point Humidity Pressure Visibility Wind Dir Wind Speed Gust Speed Precip Events Conditions
12:53 AM 75.0 °F 50.0 °F 41% 29.94 in 10.0 mi WSW 3.5 mph - N/A   Clear
1:53 AM 73.0 °F 48.9 °F 42% 29.94 in 10.0 mi Calm Calm - N/A   Clear
2:53 AM 72.0 °F 51.1 °F 48% 29.93 in 10.0 mi Calm Calm - N/A   Clear
3:53 AM 71.1 °F 48.9 °F 45% 29.92 in 10.0 mi Calm Calm - N/A   Clear
4:53 AM 68.0 °F 51.1 °F 55% 29.93 in 10.0 mi Calm Calm - N/A   Clear
5:53 AM 68.0 °F 52.0 °F 56% 29.94 in 10.0 mi East 3.5 mph - N/A   Clear
6:53 AM 69.1 °F 52.0 °F 54% 29.95 in 10.0 mi Calm Calm - N/A   Mostly Cloudy
7:53 AM 71.1 °F 51.1 °F 49% 29.96 in 10.0 mi Calm Calm - N/A   Mostly Cloudy
8:53 AM 78.1 °F 48.0 °F 35% 29.96 in 10.0 mi Calm Calm - N/A   Mostly Cloudy
9:53 AM 82.0 °F 46.9 °F 29% 29.96 in 10.0 mi West 4.6 mph - N/A   Scattered Clouds
10:53 AM 89.1 °F 44.1 °F 21% 29.96 in 10.0 mi Calm Calm - N/A   Clear
11:53 AM 93.0 °F 37.9 °F 15% 29.94 in 10.0 mi West 3.5 mph - N/A   Scattered Clouds
12:53 PM 96.1 °F 34.0 °F 11% 29.91 in 10.0 mi Variable 4.6 mph - N/A   Partly Cloudy
1:53 PM 99.0 °F 35.1 °F 11% 29.89 in 10.0 mi West 9.2 mph - N/A   Partly Cloudy
2:53 PM 99.0 °F 34.0 °F 10% 29.87 in 10.0 mi West 12.7 mph 18.4 mph N/A   Scattered Clouds
3:53 PM 97.0 °F 39.9 °F 14% 29.85 in 10.0 mi West 8.1 mph 20.7 mph N/A   Scattered Clouds
4:53 PM 96.1 °F 35.1 °F 12% 29.84 in 10.0 mi West 11.5 mph 17.3 mph N/A   Partly Cloudy
5:53 PM 93.9 °F 36.0 °F 13% 29.84 in 10.0 mi West 9.2 mph - N/A   Scattered Clouds
6:53 PM 90.0 °F 39.9 °F 17% 29.86 in 10.0 mi West 8.1 mph - N/A   Mostly Cloudy
7:53 PM 84.9 °F 46.9 °F 27% 29.88 in 10.0 mi WNW 8.1 mph 17.3 mph N/A   Clear
8:53 PM 82.9 °F 45.0 °F 26% 29.90 in 10.0 mi Variable 4.6 mph - N/A   Clear
9:53 PM 81.0 °F 45.0 °F 28% 29.91 in 10.0 mi West 4.6 mph - N/A   Clear
10:53 PM 80.1 °F 42.1 °F 26% 29.93 in 10.0 mi Calm Calm - N/A   Clear
11:53 PM 79.0 °F 44.1 °F 29% 29.93 in 10.0 mi Calm Calm - N/A   Clear